Weather in Shilda

Russia / Orenburg Oblast     51°48′53″N   59°46′17″E
temp.,
°C
wind,
m/s
gust,
m/s
humid.,
%
clouds,
%
prec.,
mm/h
press.,
hPa
HPBL,
m
18 august, thu
thu1823:00+19ene46462 0.0 101988
02:00+17e48549 0.0 1019173
05:00+16e465333 0.0 1019117
08:00+18e5749100 0.0 1020344
11:00+19e774213 0.0 10211031
14:00+20ene764110 0.0 10211339
17:00+18ne754978 0.0 10221520
20:00+17ne564945 0.0 1022665
19 august, fri
fri1923:00+13ene713404 0.0 1024469
02:00+11ne511484 0.0 1025311
05:00+9ne510595 0.0 1027248
08:00+11ne610555 0.0 1029633
11:00+15ne78395 0.0 10291532
14:00+18ne67322 0.0 10291724
17:00+19ne56285 0.0 10281722
20:00+15nne46395 0.0 102891
20 august, sat
sat2023:00+12ne37520 0.0 1029116
02:00+11n34550 0.0 102944
05:00+11nnw46575 0.0 102995
08:00+14nnw59534 0.0 1028286
11:00+21n67395 0.0 10281171
14:00+24n56340 0.0 10261858
17:00+26nnw573326 0.0 10242451
20:00+22nne244571 0.0 1024104
21 august, sun
sun2123:00+19n495785 0.0 1024152
02:00+16nne4984100 0.1 1024230
05:00+16ne488899 0.1 1024428
08:00+16e4579100 0.0 1025499
11:00+18ene4466100 0.0 10261006
14:00+19ene345884 0.0 10261161
17:00+22ene344519 0.0 10251642
20:00+19ne345450 0.0 102565
22 august, mon
mon2223:00+16ne4106743 0.0 1026213
02:00+17ene4863100 0.0 1025273
05:00+16ene4765100 0.0 1026233
08:00+16ne577184 0.0 1027321
11:00+18ne5659100 0.0 1027685
14:00+22nne543733 0.0 10262083
17:00+23ne453287 0.0 10252421
20:00+19e685162 0.0 1027523